CW2542 Weather Reports


Display with metric or nautical units.
time (UTC)temp
F
wind
direction
speed
MPH
gust
MPH
rain 1hr
in
rain 24hr
in
rain mn
in
humidity
%
barometer
mb
20260506033018 68 202 4.0 11.0 0.00 0.00 0.00 84 1016.8
20260506031518 68 177 3.0 7.0 0.00 0.00 0.00 85 1016.8
20260506030017 68 218 1.0 4.0 0.00 0.00 0.00 86 1016.9
20260506024517 68 211 2.0 7.0 0.00 0.00 0.00 86 1016.9
20260506023027 68 227 1.0 6.0 0.00 0.00 0.00 85 1017.0
20260506021530 68 251 2.0 5.0 0.00 0.00 0.00 84 1017.1
20260506020016 68 166 1.0 6.0 0.00 0.00 0.00 84 1016.9
20260506014518 69 240 0.0 6.0 0.00 0.00 0.00 85 1016.8
20260506013015 69 178 2.0 6.0 0.00 0.00 0.00 84 1016.8
20260506011514 68 219 2.0 6.0 0.00 0.00 0.00 83 1016.6
20260506010014 68 195 1.0 5.0 0.00 0.00 0.00 84 1016.7
20260506004514 68 209 1.0 5.0 0.00 0.00 0.00 84 1016.5
20260506003014 68 175 1.0 4.0 0.00 0.00 0.00 83 1016.4
20260506001512 68 140 0.0 5.0 0.00 0.00 0.00 82 1016.4
20260506000012 69 217 2.0 5.0 0.00 0.00 0.00 81 1016.5
20260505234514 69 103 1.0 6.0 0.00 0.00 0.00 79 1016.6
20260505233010 70 230 3.0 5.0 0.00 0.00 0.00 78 1016.5
20260505231518 70 169 2.0 9.0 0.00 0.00 0.00 77 1016.5
20260505230020 71 183 2.0 10.0 0.00 0.00 0.00 76 1016.6
20260505224513 71 155 3.0 11.0 0.00 0.00 0.00 74 1016.5
20260505223008 72 228 4.0 9.0 0.00 0.00 0.00 72 1016.6
20260505221508 73 196 3.0 8.0 0.00 0.00 0.00 73 1016.6
20260505220007 73 232 4.0 9.0 0.00 0.00 0.00 72 1016.5
20260505214507 73 189 4.0 7.0 0.00 0.00 0.00 74 1016.4
20260505213014 73 244 2.0 9.0 0.00 0.00 0.00 75 1016.3
20260505211510 74 232 3.0 14.0 0.00 0.00 0.00 74 1016.3
20260505210008 73 155 3.0 10.0 0.00 0.00 0.00 74 1016.6
20260505204506 73 211 3.0 9.0 0.00 0.00 0.00 73 1016.5
20260505203006 73 264 3.0 10.0 0.00 0.00 0.00 73 1016.7
20260505201512 74 175 6.0 11.0 0.00 0.00 0.00 71 1016.8
20260505200007 73 130 6.0 10.0 0.00 0.00 0.00 72 1017.0
20260505194503 74 215 2.0 10.0 0.00 0.00 0.00 74 1017.1
20260505193002 75 180 5.0 8.0 0.00 0.00 0.00 72 1017.4
20260505191505 75 193 3.0 12.0 0.00 0.00 0.00 71 1017.6
20260505190059 75 298 2.0 11.0 0.00 0.00 0.00 72 1017.7
20260505184558 74 139 5.0 14.0 0.00 0.00 0.00 71 1017.6
20260505183055 74 175 4.0 10.0 0.00 0.00 0.00 72 1017.7
20260505181555 74 164 5.0 12.0 0.00 0.00 0.00 71 1017.7
20260505180100 74 141 7.0 11.0 0.00 0.00 0.00 71 1017.8
20260505174555 74 213 2.0 9.0 0.00 0.00 0.00 72 1017.8
20260505173056 74 138 7.0 11.0 0.00 0.00 0.00 70 1017.9
20260505171551 74 163 3.0 12.0 0.00 0.00 0.00 71 1017.9
20260505170106 74 265 3.0 10.0 0.00 0.00 0.00 70 1018.1
20260505164553 74 165 6.0 11.0 0.00 0.00 0.00 69 1018.1
20260505163047 75 171 4.0 11.0 0.00 0.00 0.00 68 1018.1
20260505161547 74 304 2.0 9.0 0.00 0.00 0.00 68 1018.3
20260505153045 74 230 3.0 7.0 0.00 0.00 0.00 69 1018.4
20260505151556 74 289 4.0 10.0 0.00 0.00 0.00 66 1018.4
20260505124520 69 173 1.0 5.0 0.00 0.00 0.00 79 1018.0
20260505123016 67 252 2.0 6.0 0.00 0.00 0.00 84 1017.9
20260505121515 65 212 2.0 4.0 0.00 0.00 0.00 90 1017.9
20260505120012 62 207 1.0 3.0 0.00 0.00 0.00 98 1017.9
20260505114511 59 225 0.0 0.0 0.00 0.00 0.00 96 1017.8
20260505113016 57 225 0.0 0.0 0.00 0.00 0.00 95 1017.7
20260505111508 56 225 0.0 1.0 0.00 0.00 0.00 94 1017.5
20260505101559 57 225 0.0 0.0 0.00 0.00 0.00 91 1016.8
20260505100100 57 213 0.0 0.0 0.00 0.00 0.00 90 1016.6
20260505094555 58 213 0.0 0.0 0.00 0.00 0.00 90 1016.5
20260505093052 59 213 0.0 2.0 0.00 0.00 0.00 90 1016.4
20260505091548 60 213 0.0 1.0 0.00 0.00 0.00 89 1016.4
20260505090058 61 213 0.0 1.0 0.00 0.00 0.00 89 1016.3
20260505084550 61 213 0.0 1.0 0.00 0.00 0.00 88 1016.2
20260505083045 62 213 0.0 0.0 0.00 0.00 0.00 86 1016.2
20260505081544 63 213 0.0 2.0 0.00 0.00 0.00 86 1016.2
20260505080035 63 217 0.0 3.0 0.00 0.00 0.00 86 1016.1
20260505074533 64 207 0.0 3.0 0.00 0.00 0.00 85 1016.0
20260505073037 64 211 0.0 4.0 0.00 0.00 0.00 84 1015.9
20260505071530 64 209 1.0 4.0 0.00 0.00 0.00 84 1015.9
20260505070029 65 219 0.0 2.0 0.00 0.00 0.00 83 1016.0
20260505064528 65 180 1.0 5.0 0.00 0.00 0.00 83 1016.0
20260505063027 65 206 1.0 3.0 0.00 0.00 0.00 81 1016.0
20260505061525 65 240 1.0 5.0 0.00 0.00 0.00 80 1016.2
20260505060031 65 246 0.0 6.0 0.00 0.00 0.00 79 1016.3
20260505054534 66 227 2.0 9.0 0.00 0.00 0.00 78 1016.4
20260505053021 66 167 1.0 9.0 0.00 0.00 0.00 77 1016.5
20260505051521 65 91 1.0 7.0 0.00 0.00 0.00 77 1016.4
20260505041513 65 161 2.0 5.0 0.00 0.00 0.00 78 1016.7
20260505040009 65 240 0.0 5.0 0.00 0.00 0.00 78 1016.6
20260505034509 65 233 2.0 6.0 0.00 0.00 0.00 78 1016.7